This is the latest recevied weather packets stored in our database for station/object DD3FC-1. If no packets are shown the sender has not sent any weather packets the latest 1 day(s).
| Time | Temp. | Humidity | Pressure | Rain* | Wind** | Luminosity | Snow |
|---|---|---|---|---|---|---|---|
| 1777968628 | 18.33° C | 67% | 1010.5 hPa | 0 mm | 0 m/s | - | - |
| 1777968028 | 17.78° C | 68% | 1010.5 hPa | 0 mm | 0 m/s | - | - |
| 1777967428 | 17.78° C | 66% | 1010.4 hPa | 0 mm | 0 m/s | - | - |
| 1777966828 | 17.78° C | 68% | 1010.4 hPa | 0 mm | 0 m/s | - | - |
| 1777966228 | 17.22° C | 69% | 1010.4 hPa | 0 mm | 0 m/s | - | - |
| 1777965628 | 17.22° C | 70% | 1010.6 hPa | 0 mm | 0 m/s | - | - |
| 1777965028 | 16.67° C | 72% | 1010.6 hPa | 0 mm | 0 m/s | - | - |
| 1777964428 | 16.11° C | 73% | 1010.3 hPa | 0 mm | 0 m/s | - | - |
| 1777963828 | 16.11° C | 74% | 1010.6 hPa | 0 mm | 0 m/s | - | - |
| 1777963228 | 15.56° C | 74% | 1010.6 hPa | 0 mm | 0 m/s | - | - |
| 1777962628 | 15.56° C | 74% | 1010.8 hPa | 0 mm | 0 m/s | - | - |
| 1777962028 | 15.56° C | 75% | 1010.7 hPa | 0 mm | 0 m/s | - | - |
| 1777961428 | 15.56° C | 76% | 1010.9 hPa | 0 mm | 0 m/s | - | - |
| 1777960828 | 15° C | 76% | 1011 hPa | 0 mm | 0 m/s | - | - |
| 1777960228 | 15° C | 76% | 1011 hPa | 0 mm | 0 m/s | - | - |
| 1777959628 | 15.56° C | 76% | 1010.9 hPa | 0 mm | 0 m/s | - | - |
| 1777959028 | 15° C | 74% | 1010.9 hPa | 0 mm | 0 m/s | - | - |
| 1777958428 | 15° C | 75% | 1010.8 hPa | 0 mm | 0 m/s | - | - |
| 1777957828 | 14.44° C | 77% | 1010.8 hPa | 0 mm | 0 m/s | - | - |
| 1777957228 | 14.44° C | 79% | 1010.6 hPa | 0 mm | 0 m/s | - | - |
| 1777956628 | 13.89° C | 80% | 1010.6 hPa | 0 mm | 0 m/s | - | - |
| 1777956028 | 13.89° C | 79% | 1010.6 hPa | 0 mm | 0 m/s | - | - |
| 1777955428 | 13.89° C | 79% | 1010.7 hPa | 0 mm | 0 m/s | - | - |
| 1777954828 | 14.44° C | 79% | 1010.8 hPa | 0 mm | 0 m/s | - | - |
| 1777954228 | 14.44° C | 78% | 1010.6 hPa | 0 mm | 0 m/s | - | - |
* Rain latest hour (hover to see other rain measurements)
** Current wind speed in m/s (hover to see current wind gust speed)